Volver al catálogo

INTELSAT 22

ActivoComunicacionesGEO
NORAD 38098·PAYLOAD· XX

Lanzado Mar 25, 2012 desde Baikonur Cosmodrome

Loading…

TLE

ActualizadoSource: CelesTrak SupGP

Época: Sep 14, 2026, 13:23 UTC

1 38098C 12011A   26257.55763889  .00000027  00000+0  00000+0 0  2570
2 38098   0.0342 263.1654 0001933 257.6906 105.5143  1.00275395    19

Sigue INTELSAT 22 en tiempo real con AllMySat

Download on the App Store